EST,Max TemperatureF,Mean TemperatureF,Min TemperatureF,Max Dew PointF,MeanDew PointF,Min DewpointF,Max Humidity, Mean Humidity, Min Humidity, Max Sea Level PressureIn, Mean Sea Level PressureIn, Min Sea Level PressureIn, Max VisibilityMiles, Mean VisibilityMiles, Min VisibilityMiles, Max Wind SpeedMPH, Mean Wind SpeedMPH, Max Gust SpeedMPH,PrecipitationIn, CloudCover, Events, WindDirDegrees
2013-1-1,32,18,3,25,7,-2,86,73,60,30.02,29.96,29.77,10,10,9,16,9,26,0.00,7,Snow,351
2013-1-2,23,9,-5,17,4,-13,83,74,55,30.30,30.06,29.91,10,10,8,17,7,21,0.00,5,Snow,307
2013-1-3,28,8,-9,27,17,-15,100,91,71,30.28,30.00,29.92,10,4,1,15,8,17,0.00,7,Snow,213
2013-1-4,32,30,28,27,25,22,87,76,69,29.91,29.86,29.77,10,9,2,23,15,39,0.01,8,Rain-Snow,261
2013-1-5,33,28,24,28,22,14,87,72,50,30.28,30.08,29.90,10,10,4,20,13,30,0.02,6,Rain-Snow,262
2013-1-6,33,28,24,34,30,21,100,94,74,30.07,29.94,29.87,10,5,1,14,10,21,0.34,8,Rain-Snow,227
2013-1-7,25,18,12,23,16,10,100,88,80,30.42,30.30,30.07,10,10,10,17,7,18,0.00,7,,334
2013-1-8,34,28,23,30,24,17,90,77,61,30.35,30.28,30.17,10,10,10,13,10,20,0.08,5,,193
2013-1-9,43,32,21,34,28,17,87,78,63,30.30,30.10,29.91,10,10,7,22,14,31,0.00,5,Rain,213
2013-1-10,37,30,23,28,23,20,88,73,56,30.57,30.49,30.25,10,10,10,14,9,22,0.01,0,,249
2013-1-11,37,30,22,36,30,19,100,85,60,30.50,30.10,29.99,10,10,7,20,14,25,0.05,6,Rain,148
2013-1-12,44,40,35,40,38,36,100,96,81,30.04,30.01,29.98,10,10,9,16,14,,0.00,4,,144
2013-1-13,55,47,39,54,46,39,100,97,82,30.04,29.88,29.78,10,10,8,22,13,26,0.05,7,Rain,157
2013-1-14,53,42,29,52,37,21,100,88,52,30.35,30.04,29.75,10,10,7,31,14,48,0.07,8,Rain,255
2013-1-15,31,28,24,23,21,19,86,72,61,30.38,30.33,30.22,10,10,10,9,3,,0.00,7,,236
2013-1-16,34,30,27,28,26,22,87,81,75,30.19,29.88,29.77,10,10,7,16,8,24,0.00,7,Rain-Snow,190
2013-1-17,33,20,5,32,22,-4,100,83,48,30.22,29.93,29.79,10,7,2,20,12,26,0.01,8,Rain-Snow,281
2013-1-18,24,12,1,12,7,-4,83,66,41,30.41,30.31,30.10,10,10,10,17,7,23,0.00,5,Snow,203
2013-1-19,47,35,23,30,22,13,68,54,40,30.06,29.89,29.60,10,10,10,21,14,34,0.00,5,Rain,203
2013-1-20,46,29,11,36,27,2,100,84,41,30.06,29.54,29.37,10,6,1,32,19,50,0.04,7,Rain-Snow,250
2013-1-21,16,11,6,11,7,-5,92,81,53,30.06,29.92,29.86,10,7,1,12,5,,0.00,8,Snow,38
2013-1-22,10,5,-1,5,0,-16,92,77,40,30.17,29.93,29.84,10,8,2,15,3,23,0.00,4,Snow,257
2013-1-23,0,-8,-15,-11,-15,-20,79,64,44,30.28,30.22,30.17,10,10,10,9,4,,0.00,0,,30
2013-1-24,6,-3,-12,-5,-11,-16,82,66,50,30.48,30.34,30.19,10,10,10,10,6,18,0.00,2,,303
2013-1-25,10,1,-8,5,-4,-12,85,71,51,30.50,30.29,30.14,10,9,6,8,3,,0.00,3,Snow,116
2013-1-26,15,6,-2,10,2,-6,92,78,53,30.39,30.28,30.14,7,7,3,7,3,,0.00,3,Snow,269
2013-1-27,18,7,-4,8,1,-8,92,68,40,30.59,30.51,30.41,10,8,7,8,3,,0.00,3,,118
2013-1-28,30,24,17,30,23,6,100,92,60,30.43,30.03,29.86,10,4,0,22,13,30,0.00,8,Fog-Rain-Snow,141
2013-1-29,41,30,19,41,28,19,100,99,93,30.12,30.00,29.81,10,6,0,18,5,,0.25,8,Fog-Rain,93
2013-1-30,60,50,41,55,49,41,100,92,77,29.80,29.41,29.12,10,10,7,29,18,41,0.26,4,Rain,163
2013-1-31,53,36,18,52,29,11,100,87,52,29.62,29.19,28.92,10,5,0,33,20,51,0.94,7,Fog-Rain-Snow,254